Stündliche Wetter Otjiwarongo

Heute, 11 April, Sonntag

Zeit Temperatur Niederschläge Wind Luftdruck Luftfeuchtigkeit
00:00 +22°C° 0 mm 4 m/S 661 mmHg 35%
01:00 +22°C° 0 mm 4 m/S 661 mmHg 38%
02:00 +21°C° 0 mm 3 m/S 661 mmHg 39%
03:00 +21°C° 0 mm 3 m/S 661 mmHg 40%
04:00 +21°C° 0 mm 3 m/S 661 mmHg 41%
05:00 +21°C° 0 mm 3 m/S 661 mmHg 40%
06:00 +23°C° 0 mm 2 m/S 662 mmHg 39%
07:00 +23°C° 0 mm 2 m/S 663 mmHg 39%
08:00 +25°C° 0 mm 3 m/S 663 mmHg 34%
09:00 +27°C° 0 mm 4 m/S 664 mmHg 30%
10:00 +29°C° 0 mm 6 m/S 664 mmHg 26%
11:00 +30°C° 0 mm 6 m/S 664 mmHg 24%
12:00 +32°C° 0 mm 6 m/S 663 mmHg 22%
13:00 +33°C° 0 mm 7 m/S 663 mmHg 20%
14:00 +33°C° 0 mm 7 m/S 663 mmHg 19%
15:00 +33°C° 0 mm 7 m/S 663 mmHg 19%
16:00 +33°C° 0 mm 7 m/S 662 mmHg 19%
17:00 +30°C° 0 mm 6 m/S 662 mmHg 22%
18:00 +29°C° 0 mm 5 m/S 662 mmHg 24%
19:00 +27°C° 0 mm 4 m/S 663 mmHg 27%
20:00 +26°C° 0 mm 4 m/S 663 mmHg 29%
21:00 +26°C° 0 mm 4 m/S 663 mmHg 31%
22:00 +25°C° 0 mm 4 m/S 663 mmHg 33%
23:00 +23°C° 0 mm 4 m/S 663 mmHg 35%

Morgen, 12 April, Montag

Zeit Temperatur Niederschläge Wind Luftdruck Luftfeuchtigkeit
00:00 +24°C° 0 mm 3 m/S 662 mmHg 36%
01:00 +22°C° 0 mm 3 m/S 662 mmHg 38%
02:00 +22°C° 0 mm 3 m/S 662 mmHg 39%
03:00 +22°C° 0 mm 3 m/S 662 mmHg 39%
04:00 +22°C° 0 mm 3 m/S 662 mmHg 40%
05:00 +22°C° 0 mm 3 m/S 662 mmHg 40%
06:00 +22°C° 0 mm 3 m/S 663 mmHg 41%
07:00 +22°C° 0 mm 3 m/S 664 mmHg 42%
08:00 +25°C° 0 mm 3 m/S 664 mmHg 35%
09:00 +27°C° 0 mm 4 m/S 665 mmHg 28%
10:00 +30°C° 0 mm 4 m/S 665 mmHg 21%
11:00 +32°C° 0 mm 5 m/S 665 mmHg 20%
12:00 +33°C° 0 mm 6 m/S 664 mmHg 18%
13:00 +34°C° 0 mm 7 m/S 664 mmHg 16%
14:00 +34°C° 0 mm 7 m/S 664 mmHg 16%
15:00 +33°C° 0 mm 7 m/S 663 mmHg 16%
16:00 +33°C° 0 mm 7 m/S 663 mmHg 16%
17:00 +32°C° 0 mm 6 m/S 663 mmHg 19%
18:00 +29°C° 0 mm 5 m/S 663 mmHg 21%
19:00 +27°C° 0 mm 4 m/S 663 mmHg 24%
20:00 +27°C° 0 mm 4 m/S 664 mmHg 26%
21:00 +26°C° 0 mm 4 m/S 664 mmHg 28%
22:00 +25°C° 0 mm 4 m/S 664 mmHg 30%
23:00 +25°C° 0 mm 4 m/S 663 mmHg 30%

übermorgen, 13 April, Dienstag

Zeit Temperatur Niederschläge Wind Luftdruck Luftfeuchtigkeit
00:00 +24°C° 0 mm 3 m/S 663 mmHg 31%
01:00 +24°C° 0 mm 3 m/S 663 mmHg 32%
02:00 +22°C° 0 mm 3 m/S 663 mmHg 32%
03:00 +22°C° 0 mm 4 m/S 663 mmHg 33%
04:00 +21°C° 0 mm 4 m/S 662 mmHg 33%
05:00 +21°C° 0 mm 4 m/S 663 mmHg 34%
06:00 +21°C° 0 mm 3 m/S 663 mmHg 34%
07:00 +21°C° 0 mm 3 m/S 664 mmHg 35%
08:00 +25°C° 0 mm 4 m/S 664 mmHg 29%
09:00 +27°C° 0 mm 5 m/S 665 mmHg 24%
10:00 +30°C° 0 mm 6 m/S 666 mmHg 19%
11:00 +32°C° 0 mm 6 m/S 665 mmHg 17%
12:00 +33°C° 0 mm 6 m/S 665 mmHg 16%
13:00 +33°C° 0 mm 7 m/S 664 mmHg 15%
14:00 +33°C° 0 mm 7 m/S 664 mmHg 15%
15:00 +33°C° 0 mm 7 m/S 664 mmHg 14%
16:00 +33°C° 0 mm 7 m/S 663 mmHg 14%
17:00 +30°C° 0 mm 6 m/S 663 mmHg 17%
18:00 +28°C° 0 mm 5 m/S 663 mmHg 19%
19:00 +27°C° 0 mm 4 m/S 663 mmHg 22%
20:00 +26°C° 0 mm 4 m/S 663 mmHg 24%
21:00 +25°C° 0 mm 4 m/S 663 mmHg 25%
22:00 +23°C° 0 mm 4 m/S 664 mmHg 27%
23:00 +23°C° 0 mm 4 m/S 663 mmHg 27%

14 April, Mittwoch

Zeit Temperatur Niederschläge Wind Luftdruck Luftfeuchtigkeit
00:00 +22°C° 0 mm 3 m/S 663 mmHg 27%
01:00 +22°C° 0 mm 3 m/S 663 mmHg 26%
02:00 +21°C° 0 mm 3 m/S 663 mmHg 27%
03:00 +21°C° 0 mm 3 m/S 662 mmHg 28%
04:00 +20°C° 0 mm 4 m/S 662 mmHg 28%
05:00 +20°C° 0 mm 4 m/S 662 mmHg 30%
06:00 +20°C° 0 mm 4 m/S 663 mmHg 31%
07:00 +20°C° 0 mm 4 m/S 663 mmHg 32%
08:00 +23°C° 0 mm 5 m/S 664 mmHg 27%
09:00 +27°C° 0 mm 6 m/S 664 mmHg 23%
10:00 +30°C° 0 mm 7 m/S 665 mmHg 18%
11:00 +32°C° 0 mm 7 m/S 664 mmHg 17%
12:00 +33°C° 0 mm 8 m/S 664 mmHg 16%
13:00 +33°C° 0 mm 8 m/S 663 mmHg 15%
14:00 +33°C° 0 mm 8 m/S 663 mmHg 15%
15:00 +33°C° 0 mm 7 m/S 663 mmHg 15%
16:00 +33°C° 0 mm 7 m/S 662 mmHg 16%
17:00 +30°C° 0 mm 6 m/S 662 mmHg 18%
18:00 +28°C° 0 mm 5 m/S 662 mmHg 21%
19:00 +27°C° 0 mm 4 m/S 662 mmHg 23%
20:00 +26°C° 0 mm 4 m/S 662 mmHg 25%
21:00 +25°C° 0 mm 4 m/S 662 mmHg 26%
22:00 +23°C° 0 mm 4 m/S 662 mmHg 28%
23:00 +23°C° 0 mm 4 m/S 662 mmHg 28%

15 April, Donnerstag

Zeit Temperatur Niederschläge Wind Luftdruck Luftfeuchtigkeit
00:00 +22°C° 0 mm 4 m/S 662 mmHg 29%
01:00 +22°C° 0 mm 4 m/S 662 mmHg 30%
02:00 +21°C° 0 mm 3 m/S 661 mmHg 31%
03:00 +21°C° 0 mm 2 m/S 661 mmHg 32%
04:00 +21°C° 0 mm 1 m/S 661 mmHg 34%
05:00 +21°C° 0 mm 2 m/S 661 mmHg 32%
06:00 +23°C° 0 mm 2 m/S 662 mmHg 31%
07:00 +23°C° 0 mm 2 m/S 662 mmHg 30%
08:00 +26°C° 0 mm 3 m/S 663 mmHg 27%
09:00 +28°C° 0 mm 4 m/S 663 mmHg 23%
10:00 +30°C° 0 mm 5 m/S 664 mmHg 19%
11:00 +32°C° 0 mm 5 m/S 663 mmHg 18%
12:00 +33°C° 0 mm 6 m/S 663 mmHg 17%
13:00 +33°C° 0 mm 6 m/S 662 mmHg 16%
14:00 +33°C° 0 mm 6 m/S 662 mmHg 15%
15:00 +33°C° 0 mm 6 m/S 662 mmHg 15%
16:00 +33°C° 0 mm 6 m/S 661 mmHg 15%
17:00 +30°C° 0 mm 6 m/S 661 mmHg 17%
18:00 +29°C° 0 mm 5 m/S 661 mmHg 19%
19:00 +27°C° 0 mm 4 m/S 661 mmHg 21%
20:00 +27°C° 0 mm 4 m/S 662 mmHg 22%
21:00 +26°C° 0 mm 4 m/S 662 mmHg 23%
22:00 +26°C° 0 mm 4 m/S 662 mmHg 24%
23:00 +25°C° 0 mm 4 m/S 662 mmHg 25%

16 April, Freitag

Zeit Temperatur Niederschläge Wind Luftdruck Luftfeuchtigkeit
00:00 +23°C° 0 mm 4 m/S 661 mmHg 26%
01:00 +23°C° 0 mm 4 m/S 661 mmHg 27%
02:00 +22°C° 0 mm 4 m/S 661 mmHg 28%
03:00 +21°C° 0 mm 4 m/S 661 mmHg 28%
04:00 +21°C° 0 mm 4 m/S 661 mmHg 29%
05:00 +21°C° 0 mm 3 m/S 661 mmHg 28%
06:00 +21°C° 0 mm 3 m/S 661 mmHg 28%
07:00 +22°C° 0 mm 3 m/S 662 mmHg 27%
08:00 +25°C° 0 mm 3 m/S 662 mmHg 24%
09:00 +28°C° 0 mm 4 m/S 663 mmHg 21%
10:00 +32°C° 0 mm 4 m/S 663 mmHg 17%
11:00 +32°C° 0 mm 5 m/S 663 mmHg 17%
12:00 +33°C° 0 mm 5 m/S 662 mmHg 16%
13:00 +34°C° 0 mm 6 m/S 662 mmHg 15%
14:00 +33°C° 0 mm 6 m/S 661 mmHg 16%
15:00 +33°C° 0 mm 5 m/S 661 mmHg 16%
16:00 +33°C° 0 mm 5 m/S 660 mmHg 17%
17:00 +30°C° 0.1 mm 5 m/S 661 mmHg 21%
18:00 +28°C° 0.1 mm 5 m/S 661 mmHg 24%
19:00 +27°C° 0.1 mm 5 m/S 661 mmHg 28%
20:00 +26°C° 0 mm 5 m/S 661 mmHg 31%
21:00 +25°C° 0 mm 5 m/S 661 mmHg 33%
22:00 +23°C° 0 mm 4 m/S 661 mmHg 36%
23:00 +23°C° 0 mm 4 m/S 661 mmHg 37%
Mehr zeigen

Wir brauchen deine Erlaubnis

Meteoprog und unser Service Anbieter werden persönliche Daten aufbewahren, so wie Cookies, Geräte Bezeichnung oder ähnliche Technologien von deinem Gerät und Prozess, so wie Persönliche Daten Inhalte und Werbungen, genauso wie social Media und den Verkehr zu analysieren.

  • Aufbewahrung und/oder Zugang zu deiner Geräte Informationen.

    Cookies, Geräte Bezeichnung oder andere Informationen, können aufbewahrt oder Zugang zu deinem Gerät erhalten, für den Grund, der oben angegeben wird.

  • Personalisierte Werbung und Inhalte, Messungen, Einblick in das Publikum und Produkt Entwicklung.

    Werbungen und Inhalte können personalisiert werden, basierend auf ein Profil. Mehr Daten können besser personalisierte Werbungen und Inhalte hinzufügen. Werbung und Inhalte können gezeigt und gemessen werden. Einblicke über das Publikum, welche die Werbung gesehen haben und den Inhalt, können abgeleitet werden. So wie Daten können genutzt werden, um es zu verbessern oder die Benutzer Erfahrung zu verbessern das System und die Software.

Wenn du “Ich stimme zu” klickst, erlaubst du uns, die Cookies zu benutzen die Geräte Bezeichnung, den Web oder ähnliche Technologien zu benutzen. Deine Settings, können in deinem Gerät bei deinem Browser geändert werden.

Für den bestimmten Zweck, berechtigten Interessen beruhen darauf, mehr als auf den Inhalt. Du kannst mehr darüber in unseren Privaten und Cookie Politik lesen.